TimeMDT,TemperatureF,Dew PointF,Humidity,Sea Level PressureIn,VisibilityMPH,Wind Direction,Wind SpeedMPH,Gust SpeedMPH,PrecipitationIn,Events,Conditions,WindDirDegrees,DateUTC
12:02 AM,32.0,30.2,93,30.26,4.0,SE,11.5,-,N/A,,Overcast,140,2012-10-06 06:02:00
12:55 AM,30.9,30.9,100,30.26,6.0,SSE,11.5,-,N/A,,Overcast,150,2012-10-06 06:55:00
1:55 AM,30.9,30.9,100,30.26,6.0,SSE,10.4,-,N/A,,Overcast,150,2012-10-06 07:55:00
2:43 AM,32.0,30.2,93,30.23,6.0,SSE,11.5,-,0.01,,Overcast,160,2012-10-06 08:43:00
2:55 AM,32.0,32.0,100,30.23,6.0,SSE,12.7,-,0.01,,Overcast,150,2012-10-06 08:55:00
3:55 AM,30.9,30.9,100,30.22,10.0,SSE,15.0,-,N/A,,Overcast,160,2012-10-06 09:55:00
4:55 AM,30.9,30.9,100,30.24,10.0,SSE,10.4,-,N/A,,Overcast,160,2012-10-06 10:55:00
5:31 AM,30.2,30.2,100,30.22,10.0,South,10.4,-,N/A,,Overcast,170,2012-10-06 11:31:00
5:55 AM,30.9,30.9,100,30.25,10.0,South,12.7,-,N/A,,Overcast,170,2012-10-06 11:55:00
6:12 AM,30.2,30.2,100,30.21,10.0,SSE,11.5,-,N/A,,Overcast,160,2012-10-06 12:12:00
6:55 AM,30.9,30.9,100,30.25,10.0,South,9.2,-,N/A,,Overcast,170,2012-10-06 12:55:00
7:55 AM,30.9,30.9,100,30.27,10.0,South,9.2,-,N/A,,Overcast,170,2012-10-06 13:55:00
8:30 AM,30.2,30.2,100,30.24,10.0,South,6.9,-,N/A,,Overcast,180,2012-10-06 14:30:00
8:55 AM,32.0,32.0,100,30.27,9.0,South,8.1,-,N/A,,Overcast,180,2012-10-06 14:55:00
9:06 AM,32.0,32.0,100,30.25,10.0,SSW,6.9,-,N/A,,Overcast,200,2012-10-06 15:06:00
9:51 AM,33.8,32.0,93,30.25,10.0,South,9.2,-,N/A,,Overcast,180,2012-10-06 15:51:00
9:55 AM,33.1,32.0,96,30.27,10.0,South,8.1,-,N/A,,Overcast,180,2012-10-06 15:55:00
10:08 AM,33.8,30.2,87,30.25,10.0,SSW,6.9,-,N/A,,Overcast,200,2012-10-06 16:08:00
10:55 AM,35.1,30.9,85,30.27,10.0,South,5.8,-,N/A,,Overcast,190,2012-10-06 16:55:00
11:32 AM,39.2,33.8,81,30.24,10.0,SSE,8.1,-,N/A,,Overcast,160,2012-10-06 17:32:00
11:39 AM,37.4,33.8,87,30.24,10.0,SSE,5.8,-,0.00,Rain,Light Rain,160,2012-10-06 17:39:00
11:53 AM,35.6,32.0,87,30.25,2.5,SW,6.9,-,0.00,Snow,Light Snow,230,2012-10-06 17:53:00
11:55 AM,35.1,33.1,92,30.27,2.5,SW,4.6,-,0.01,Snow,Light Snow,230,2012-10-06 17:55:00
12:00 PM,35.6,33.8,93,30.24,3.0,Calm,Calm,-,0.00,Snow,Light Snow,0,2012-10-06 18:00:00
12:43 PM,41.0,32.0,70,30.24,10.0,NW,16.1,24.2,0.00,,Mostly Cloudy,320,2012-10-06 18:43:00
12:55 PM,39.0,30.0,70,30.26,10.0,NW,11.5,-,0.00,,Mostly Cloudy,320,2012-10-06 18:55:00
1:55 PM,39.0,27.0,62,30.25,10.0,NNW,20.7,-,N/A,,Mostly Cloudy,330,2012-10-06 19:55:00
2:39 PM,39.2,26.6,61,30.24,10.0,NNW,20.7,28.8,N/A,,Overcast,330,2012-10-06 20:39:00
2:55 PM,37.0,27.0,67,30.27,10.0,NW,18.4,-,N/A,,Overcast,310,2012-10-06 20:55:00
4:55 PM,33.1,26.1,75,30.31,10.0,NNE,12.7,20.7,0.00,,Overcast,20,2012-10-06 22:55:00
5:04 PM,33.8,26.6,75,30.27,10.0,NE,13.8,-,N/A,,Overcast,40,2012-10-06 23:04:00
5:34 PM,32.0,26.6,80,30.28,10.0,NE,11.5,-,N/A,,Overcast,50,2012-10-06 23:34:00
5:55 PM,32.0,26.1,79,30.32,10.0,NE,10.4,-,N/A,,Overcast,50,2012-10-06 23:55:00
6:55 PM,30.0,25.0,82,30.35,10.0,ENE,8.1,-,N/A,,Overcast,70,2012-10-07 00:55:00
7:55 PM,30.0,24.1,79,30.36,10.0,ENE,6.9,-,N/A,,Overcast,70,2012-10-07 01:55:00
8:55 PM,28.9,24.1,82,30.36,10.0,ESE,6.9,-,N/A,,Overcast,110,2012-10-07 02:55:00
9:41 PM,28.4,24.8,86,30.30,10.0,East,4.6,-,N/A,,Overcast,90,2012-10-07 03:41:00
9:55 PM,28.0,25.0,88,30.32,10.0,ENE,9.2,-,N/A,,Overcast,60,2012-10-07 03:55:00
10:55 PM,28.0,25.0,88,30.32,10.0,SSE,6.9,-,N/A,,Overcast,150,2012-10-07 04:55:00
11:55 PM,28.0,25.0,88,30.30,10.0,SE,9.2,-,N/A,,Overcast,140,2012-10-07 05:55:00